Wetterdaten: aktuell Sonntag, 01.10.2023 22:15
Datum Zeit Temp. A. Feuchte A. Luftdruck Regen Wind Richtung Richtung Sonnenschein T Regen UV Solar Taupunkt Windchill Windben
30.09.2023 22:15 7,7 C 94 % 1025,8 hPa 0,0 mm 0,0 km/h (0 Bft) W 276 0 min 0 min 0,0 UV-I 0 W/m 6,8 C 7,7 C 0,0 km/h (0 Bft)
30.09.2023 22:10 7,7 C 94 % 1025,8 hPa 0,0 mm 0,0 km/h (0 Bft) W 276 0 min 0 min 0,0 UV-I 0 W/m 6,8 C 7,7 C 0,0 km/h (0 Bft)
30.09.2023 22:05 7,7 C 94 % 1025,8 hPa 0,0 mm 0,0 km/h (0 Bft) W 276 0 min 0 min 0,0 UV-I 0 W/m 6,8 C 7,7 C 0,0 km/h (0 Bft)
30.09.2023 22:00 7,7 C 93 % 1025,7 hPa 0,0 mm 0,0 km/h (0 Bft) W 276 0 min 0 min 0,0 UV-I 0 W/m 6,6 C 7,7 C 0,0 km/h (0 Bft)
30.09.2023 21:55 7,8 C 93 % 1025,7 hPa 0,0 mm 0,0 km/h (0 Bft) W 276 0 min 0 min 0,0 UV-I 0 W/m 6,7 C 7,8 C 0,0 km/h (0 Bft)
30.09.2023 21:50 7,9 C 93 % 1025,6 hPa 0,0 mm 0,0 km/h (0 Bft) W 276 0 min 0 min 0,0 UV-I 0 W/m 6,8 C 7,9 C 0,0 km/h (0 Bft)
30.09.2023 21:45 7,9 C 93 % 1025,5 hPa 0,0 mm 0,0 km/h (0 Bft) W 276 0 min 0 min 0,0 UV-I 0 W/m 6,8 C 7,9 C 0,0 km/h (0 Bft)
30.09.2023 21:40 8,0 C 93 % 1025,5 hPa 0,0 mm 0,0 km/h (0 Bft) W 276 0 min 0 min 0,0 UV-I 0 W/m 6,9 C 8,0 C 0,0 km/h (0 Bft)
30.09.2023 21:35 8,1 C 93 % 1025,5 hPa 0,0 mm 0,0 km/h (0 Bft) W 276 0 min 0 min 0,0 UV-I 0 W/m 7,0 C 8,1 C 0,0 km/h (0 Bft)
30.09.2023 21:30 8,2 C 93 % 1025,5 hPa 0,0 mm 0,0 km/h (0 Bft) W 276 0 min 0 min 0,0 UV-I 0 W/m 7,1 C 8,2 C 0,0 km/h (0 Bft)
30.09.2023 21:25 8,3 C 93 % 1025,5 hPa 0,0 mm 0,0 km/h (0 Bft) W 276 0 min 0 min 0,0 UV-I 0 W/m 7,2 C 8,3 C 0,0 km/h (0 Bft)
30.09.2023 21:20 8,3 C 92 % 1025,6 hPa 0,0 mm 0,0 km/h (0 Bft) W 276 0 min 0 min 0,0 UV-I 0 W/m 7,1 C 8,3 C 0,0 km/h (0 Bft)
30.09.2023 21:15 8,4 C 92 % 1025,7 hPa 0,0 mm 0,0 km/h (0 Bft) W 276 0 min 0 min 0,0 UV-I 0 W/m 7,2 C 8,4 C 0,0 km/h (0 Bft)
30.09.2023 21:10 8,5 C 92 % 1025,7 hPa 0,0 mm 0,0 km/h (0 Bft) W 276 0 min 0 min 0,0 UV-I 0 W/m 7,3 C 8,5 C 0,0 km/h (0 Bft)
30.09.2023 21:05 8,7 C 92 % 1025,6 hPa 0,0 mm 0,0 km/h (0 Bft) W 276 0 min 0 min 0,0 UV-I 0 W/m 7,5 C 8,7 C 0,0 km/h (0 Bft)
30.09.2023 21:00 8,7 C 91 % 1025,6 hPa 0,0 mm 0,0 km/h (0 Bft) W 276 0 min 0 min 0,0 UV-I 0 W/m 7,3 C 8,7 C 0,0 km/h (0 Bft)
30.09.2023 20:55 8,8 C 91 % 1025,6 hPa 0,0 mm 0,0 km/h (0 Bft) W 276 0 min 0 min 0,0 UV-I 0 W/m 7,4 C 8,8 C 0,0 km/h (0 Bft)
30.09.2023 20:50 8,9 C 90 % 1025,6 hPa 0,0 mm 0,0 km/h (0 Bft) W 276 0 min 0 min 0,0 UV-I 0 W/m 7,4 C 8,9 C 0,0 km/h (0 Bft)
30.09.2023 20:45 9,1 C 90 % 1025,5 hPa 0,0 mm 0,0 km/h (0 Bft) W 276 0 min 0 min 0,0 UV-I 0 W/m 7,5 C 9,1 C 0,0 km/h (0 Bft)
30.09.2023 20:40 9,2 C 90 % 1025,6 hPa 0,0 mm 0,0 km/h (0 Bft) W 276 0 min 0 min 0,0 UV-I 0 W/m 7,6 C 9,2 C 0,0 km/h (0 Bft)
30.09.2023 20:35 9,3 C 90 % 1025,5 hPa 0,0 mm 0,0 km/h (0 Bft) W 276 0 min 0 min 0,0 UV-I 0 W/m 7,7 C 9,3 C 0,0 km/h (0 Bft)
30.09.2023 20:30 9,4 C 89 % 1025,6 hPa 0,0 mm 0,0 km/h (0 Bft) W 276 0 min 0 min 0,0 UV-I 0 W/m 7,7 C 9,4 C 0,0 km/h (0 Bft)
30.09.2023 20:25 9,6 C 89 % 1025,6 hPa 0,0 mm 0,0 km/h (0 Bft) W 276 0 min 0 min 0,0 UV-I 0 W/m 7,9 C 9,6 C 0,0 km/h (0 Bft)
30.09.2023 20:20 9,7 C 90 % 1025,5 hPa 0,0 mm 0,0 km/h (0 Bft) W 276 0 min 0 min 0,0 UV-I 0 W/m 8,1 C 9,7 C 0,0 km/h (0 Bft)
30.09.2023 20:15 9,7 C 89 % 1025,5 hPa 0,0 mm 0,0 km/h (0 Bft) W 276 0 min 0 min 0,0 UV-I 0 W/m 8,0 C 9,7 C 0,0 km/h (0 Bft)
30.09.2023 20:10 9,9 C 88 % 1025,5 hPa 0,0 mm 0,0 km/h (0 Bft) W 276 0 min 0 min 0,0 UV-I 0 W/m 8,0 C 9,9 C 0,0 km/h (0 Bft)
30.09.2023 20:05 10,1 C 88 % 1025,5 hPa 0,0 mm 0,0 km/h (0 Bft) W 276 0 min 0 min 0,0 UV-I 0 W/m 8,2 C 10,1 C 0,0 km/h (0 Bft)
30.09.2023 20:00 10,2 C 88 % 1025,5 hPa 0,0 mm 0,0 km/h (0 Bft) W 276 0 min 0 min 0,0 UV-I 0 W/m 8,3 C 10,2 C 0,0 km/h (0 Bft)
30.09.2023 19:55 10,3 C 87 % 1025,4 hPa 0,0 mm 0,0 km/h (0 Bft) W 276 0 min 0 min 0,0 UV-I 0 W/m 8,2 C 10,3 C 0,0 km/h (0 Bft)
30.09.2023 19:50 10,6 C 86 % 1025,3 hPa 0,0 mm 0,0 km/h (0 Bft) W 276 0 min 0 min 0,0 UV-I 0 W/m 8,4 C 10,6 C 0,0 km/h (0 Bft)
30.09.2023 19:45 10,7 C 86 % 1025,3 hPa 0,0 mm 0,0 km/h (0 Bft) W 276 0 min 0 min 0,0 UV-I 0 W/m 8,5 C 10,7 C 0,0 km/h (0 Bft)
30.09.2023 19:40 10,9 C 85 % 1025,2 hPa 0,0 mm 0,0 km/h (0 Bft) W 276 0 min 0 min 0,0 UV-I 0 W/m 8,5 C 10,9 C 0,0 km/h (0 Bft)
30.09.2023 19:35 11,1 C 85 % 1025,2 hPa 0,0 mm 0,0 km/h (0 Bft) W 276 0 min 0 min 0,0 UV-I 0 W/m 8,7 C 11,1 C 0,0 km/h (0 Bft)
30.09.2023 19:30 11,3 C 83 % 1025,2 hPa 0,0 mm 0,0 km/h (0 Bft) W 276 0 min 0 min 0,0 UV-I 0 W/m 8,5 C 11,3 C 0,0 km/h (0 Bft)
30.09.2023 19:25 11,6 C 82 % 1025,1 hPa 0,0 mm 0,0 km/h (0 Bft) W 276 0 min 0 min 0,0 UV-I 0 W/m 8,6 C 11,6 C 0,0 km/h (0 Bft)
30.09.2023 19:20 11,9 C 80 % 1025,1 hPa 0,0 mm 0,0 km/h (0 Bft) W 276 0 min 0 min 0,0 UV-I 0 W/m 8,6 C 11,9 C 0,0 km/h (0 Bft)
30.09.2023 19:15 12,2 C 80 % 1025,0 hPa 0,0 mm 0,0 km/h (0 Bft) W 276 0 min 0 min 0,0 UV-I 0 W/m 8,9 C 12,2 C 0,0 km/h (0 Bft)
30.09.2023 19:10 12,4 C 79 % 1025,0 hPa 0,0 mm 0,0 km/h (0 Bft) W 276 0 min 0 min 0,0 UV-I 0 W/m 8,9 C 12,4 C 0,0 km/h (0 Bft)
30.09.2023 19:05 12,8 C 77 % 1025,0 hPa 0,0 mm 0,0 km/h (0 Bft) W 276 0 min 0 min 0,0 UV-I 0 W/m 8,9 C 12,8 C 0,0 km/h (0 Bft)
30.09.2023 19:00 13,1 C 76 % 1025,0 hPa 0,0 mm 0,0 km/h (0 Bft) W 276 0 min 0 min 0,0 UV-I 0 W/m 9,0 C 13,1 C 0,0 km/h (0 Bft)
30.09.2023 18:55 13,4 C 75 % 1025,0 hPa 0,0 mm 0,0 km/h (0 Bft) W 276 0 min 0 min 0,0 UV-I 0 W/m 9,1 C 13,4 C 0,0 km/h (0 Bft)
30.09.2023 18:50 13,8 C 73 % 1025,0 hPa 0,0 mm 0,0 km/h (0 Bft) W 276 0 min 0 min 0,0 UV-I 5 W/m 9,0 C 13,8 C 0,0 km/h (0 Bft)
30.09.2023 18:45 14,2 C 72 % 1024,9 hPa 0,0 mm 0,0 km/h (0 Bft) W 276 0 min 0 min 0,0 UV-I 7 W/m 9,2 C 14,2 C 0,0 km/h (0 Bft)
30.09.2023 18:40 14,7 C 70 % 1024,9 hPa 0,0 mm 0,0 km/h (0 Bft) W 276 0 min 0 min 0,0 UV-I 11 W/m 9,3 C 14,7 C 0,0 km/h (0 Bft)
30.09.2023 18:35 15,3 C 67 % 1024,8 hPa 0,0 mm 0,0 km/h (0 Bft) W 276 0 min 0 min 0,0 UV-I 14 W/m 9,2 C 15,3 C 1,6 km/h (1 Bft)
30.09.2023 18:30 16,0 C 64 % 1024,8 hPa 0,0 mm 0,1 km/h (0 Bft) W 276 0 min 0 min 0,0 UV-I 19 W/m 9,2 C 16,0 C 1,6 km/h (1 Bft)
30.09.2023 18:25 16,6 C 64 % 1024,7 hPa 0,0 mm 0,0 km/h (0 Bft) W 276 0 min 0 min 0,0 UV-I 25 W/m 9,8 C 16,6 C 0,0 km/h (0 Bft)
30.09.2023 18:20 17,3 C 62 % 1024,7 hPa 0,0 mm 0,0 km/h (0 Bft) W 276 0 min 0 min 0,0 UV-I 33 W/m 9,9 C 17,3 C 0,0 km/h (0 Bft)
30.09.2023 18:15 17,8 C 62 % 1024,7 hPa 0,0 mm 0,2 km/h (0 Bft) W 276 0 min 0 min 0,0 UV-I 47 W/m 10,4 C 17,8 C 1,6 km/h (1 Bft)
30.09.2023 18:10 18,2 C 55 % 1024,6 hPa 0,0 mm 0,5 km/h (0 Bft) W 276 0 min 0 min 0,0 UV-I 65 W/m 9,0 C 18,2 C 3,2 km/h (1 Bft)
30.09.2023 18:05 18,3 C 52 % 1024,6 hPa 0,0 mm 2,2 km/h (1 Bft) W 276 0 min 0 min 0,0 UV-I 63 W/m 8,3 C 18,3 C 4,8 km/h (1 Bft)
30.09.2023 18:00 18,6 C 50 % 1024,7 hPa 0,0 mm 2,6 km/h (1 Bft) W 264 0 min 0 min 0,0 UV-I 63 W/m 8,0 C 18,6 C 6,4 km/h (2 Bft)
30.09.2023 17:55 18,7 C 50 % 1024,7 hPa 0,0 mm 2,5 km/h (1 Bft) W 271 0 min 0 min 0,0 UV-I 98 W/m 8,1 C 18,7 C 6,4 km/h (2 Bft)
30.09.2023 17:50 18,8 C 50 % 1024,6 hPa 0,0 mm 1,5 km/h (1 Bft) W 280 0 min 0 min 0,0 UV-I 100 W/m 8,2 C 18,8 C 3,2 km/h (1 Bft)
30.09.2023 17:45 18,9 C 49 % 1024,6 hPa 0,0 mm 2,0 km/h (1 Bft) W 280 0 min 0 min 0,0 UV-I 120 W/m 7,9 C 18,9 C 4,8 km/h (1 Bft)
30.09.2023 17:40 18,9 C 50 % 1024,6 hPa 0,0 mm 1,9 km/h (1 Bft) W-NW 286 0 min 0 min 0,0 UV-I 125 W/m 8,2 C 18,9 C 4,8 km/h (1 Bft)
30.09.2023 17:35 19,0 C 49 % 1024,6 hPa 0,0 mm 3,0 km/h (1 Bft) W 261 0 min 0 min 0,0 UV-I 144 W/m 8,0 C 19,0 C 6,4 km/h (2 Bft)
30.09.2023 17:30 19,2 C 51 % 1024,6 hPa 0,0 mm 2,2 km/h (1 Bft) NW 317 0 min 0 min 0,0 UV-I 123 W/m 8,8 C 19,2 C 4,8 km/h (1 Bft)
30.09.2023 17:25 19,4 C 48 % 1024,6 hPa 0,0 mm 2,9 km/h (1 Bft) W-NW 286 0 min 0 min 0,0 UV-I 135 W/m 8,1 C 19,4 C 8,0 km/h (2 Bft)
30.09.2023 17:20 19,6 C 48 % 1024,6 hPa 0,0 mm 2,7 km/h (1 Bft) W-NW 299 5 min 0 min 0,0 UV-I 206 W/m 8,3 C 19,6 C 4,8 km/h (1 Bft)
30.09.2023 17:15 19,6 C 47 % 1024,6 hPa 0,0 mm 3,0 km/h (1 Bft) W-NW 294 5 min 0 min 0,0 UV-I 220 W/m 8,0 C 19,6 C 4,8 km/h (1 Bft)
30.09.2023 17:10 19,8 C 51 % 1024,6 hPa 0,0 mm 1,7 km/h (1 Bft) W-SW 243 5 min 0 min 0,0 UV-I 236 W/m 9,4 C 19,8 C 3,2 km/h (1 Bft)
30.09.2023 17:05 19,6 C 47 % 1024,6 hPa 0,0 mm 1,8 km/h (1 Bft) W-SW 237 5 min 0 min 0,0 UV-I 246 W/m 8,0 C 19,6 C 4,8 km/h (1 Bft)
30.09.2023 17:00 19,6 C 49 % 1024,6 hPa 0,0 mm 3,6 km/h (1 Bft) W-NW 294 5 min 0 min 0,0 UV-I 262 W/m 8,6 C 19,6 C 6,4 km/h (2 Bft)
30.09.2023 16:55 19,5 C 47 % 1024,7 hPa 0,0 mm 4,8 km/h (1 Bft) W-SW 237 5 min 0 min 0,0 UV-I 278 W/m 7,9 C 19,5 C 9,7 km/h (2 Bft)
30.09.2023 16:50 19,6 C 47 % 1024,8 hPa 0,0 mm 4,9 km/h (1 Bft) W-NW 286 5 min 0 min 0,0 UV-I 294 W/m 8,0 C 19,6 C 9,7 km/h (2 Bft)
30.09.2023 16:45 19,6 C 47 % 1024,9 hPa 0,0 mm 3,2 km/h (1 Bft) W-SW 254 5 min 0 min 0,5 UV-I 304 W/m 8,0 C 19,6 C 6,4 km/h (2 Bft)
30.09.2023 16:40 19,5 C 47 % 1024,9 hPa 0,0 mm 4,0 km/h (1 Bft) W-SW 254 5 min 0 min 0,5 UV-I 316 W/m 7,9 C 19,5 C 9,7 km/h (2 Bft)
30.09.2023 16:35 19,4 C 48 % 1024,9 hPa 0,0 mm 3,1 km/h (1 Bft) W 262 5 min 0 min 0,6 UV-I 323 W/m 8,1 C 19,4 C 9,7 km/h (2 Bft)
30.09.2023 16:30 19,3 C 49 % 1024,9 hPa 0,0 mm 5,3 km/h (1 Bft) W-SW 258 5 min 0 min 0,6 UV-I 336 W/m 8,3 C 19,3 C 11,3 km/h (2 Bft)
30.09.2023 16:25 19,3 C 51 % 1024,9 hPa 0,0 mm 6,3 km/h (2 Bft) W 268 5 min 0 min 0,6 UV-I 350 W/m 8,9 C 19,3 C 12,9 km/h (3 Bft)
30.09.2023 16:20 19,4 C 49 % 1024,8 hPa 0,0 mm 5,4 km/h (1 Bft) W-NW 296 5 min 0 min 0,7 UV-I 364 W/m 8,4 C 19,4 C 9,7 km/h (2 Bft)
30.09.2023 16:15 19,6 C 49 % 1024,8 hPa 0,0 mm 3,3 km/h (1 Bft) W-SW 252 5 min 0 min 0,7 UV-I 371 W/m 8,6 C 19,6 C 6,4 km/h (2 Bft)
30.09.2023 16:10 19,4 C 51 % 1024,8 hPa 0,0 mm 4,7 km/h (1 Bft) N 5 5 min 0 min 0,8 UV-I 385 W/m 9,0 C 19,4 C 9,7 km/h (2 Bft)
30.09.2023 16:05 19,3 C 51 % 1024,7 hPa 0,0 mm 4,7 km/h (1 Bft) W-NW 286 5 min 0 min 0,9 UV-I 396 W/m 8,9 C 19,3 C 9,7 km/h (2 Bft)
30.09.2023 16:00 19,3 C 50 % 1024,7 hPa 0,0 mm 4,8 km/h (1 Bft) W-NW 289 5 min 0 min 0,9 UV-I 408 W/m 8,6 C 19,3 C 11,3 km/h (2 Bft)
30.09.2023 15:55 19,6 C 52 % 1024,8 hPa 0,0 mm 5,6 km/h (1 Bft) W 264 5 min 0 min 1,0 UV-I 418 W/m 9,5 C 19,6 C 11,3 km/h (2 Bft)
30.09.2023 15:50 19,6 C 52 % 1024,8 hPa 0,0 mm 2,1 km/h (1 Bft) SW 215 5 min 0 min 1,1 UV-I 427 W/m 9,5 C 19,6 C 11,3 km/h (2 Bft)
30.09.2023 15:45 19,4 C 51 % 1025,0 hPa 0,0 mm 4,3 km/h (1 Bft) W 275 5 min 0 min 1,1 UV-I 439 W/m 9,0 C 19,4 C 9,7 km/h (2 Bft)
30.09.2023 15:40 19,3 C 53 % 1024,9 hPa 0,0 mm 5,4 km/h (1 Bft) W-SW 252 5 min 0 min 1,2 UV-I 450 W/m 9,5 C 19,3 C 11,3 km/h (2 Bft)
30.09.2023 15:35 19,6 C 55 % 1025,0 hPa 0,0 mm 5,2 km/h (1 Bft) W-SW 240 5 min 0 min 1,2 UV-I 459 W/m 10,3 C 19,6 C 12,9 km/h (3 Bft)
30.09.2023 15:30 19,3 C 55 % 1024,8 hPa 0,0 mm 3,2 km/h (1 Bft) SW 225 5 min 0 min 1,3 UV-I 468 W/m 10,0 C 19,3 C 9,7 km/h (2 Bft)
30.09.2023 15:25 19,5 C 56 % 1024,9 hPa 0,0 mm 5,1 km/h (1 Bft) W-SW 256 5 min 0 min 1,3 UV-I 473 W/m 10,5 C 19,5 C 11,3 km/h (2 Bft)
30.09.2023 15:20 19,3 C 55 % 1025,0 hPa 0,0 mm 2,7 km/h (1 Bft) SW 225 5 min 0 min 1,4 UV-I 478 W/m 10,0 C 19,3 C 6,4 km/h (2 Bft)
30.09.2023 15:15 19,4 C 56 % 1025,0 hPa 0,0 mm 3,0 km/h (1 Bft) W 281 5 min 0 min 1,4 UV-I 489 W/m 10,4 C 19,4 C 8,0 km/h (2 Bft)
30.09.2023 15:10 19,1 C 56 % 1025,1 hPa 0,0 mm 3,7 km/h (1 Bft) S-SW 197 5 min 0 min 1,5 UV-I 496 W/m 10,1 C 19,1 C 11,3 km/h (2 Bft)
30.09.2023 15:05 19,3 C 56 % 1025,0 hPa 0,0 mm 3,7 km/h (1 Bft) SW 223 5 min 0 min 1,5 UV-I 504 W/m 10,3 C 19,3 C 8,0 km/h (2 Bft)
30.09.2023 15:00 19,1 C 59 % 1025,1 hPa 0,0 mm 1,4 km/h (1 Bft) S-SO 165 5 min 0 min 1,6 UV-I 513 W/m 10,9 C 19,1 C 6,4 km/h (2 Bft)
30.09.2023 14:55 19,1 C 57 % 1025,2 hPa 0,0 mm 3,7 km/h (1 Bft) SW 215 5 min 0 min 1,6 UV-I 520 W/m 10,4 C 19,1 C 8,0 km/h (2 Bft)
30.09.2023 14:50 19,2 C 56 % 1025,2 hPa 0,0 mm 2,8 km/h (1 Bft) W 277 5 min 0 min 1,7 UV-I 515 W/m 10,2 C 19,2 C 6,4 km/h (2 Bft)
30.09.2023 14:45 19,2 C 57 % 1025,2 hPa 0,0 mm 2,4 km/h (1 Bft) W-SW 251 5 min 0 min 1,7 UV-I 527 W/m 10,5 C 19,2 C 9,7 km/h (2 Bft)
30.09.2023 14:40 19,1 C 57 % 1025,1 hPa 0,0 mm 1,9 km/h (1 Bft) W-NW 301 5 min 0 min 1,8 UV-I 536 W/m 10,4 C 19,1 C 8,0 km/h (2 Bft)
30.09.2023 14:35 19,0 C 58 % 1025,2 hPa 0,0 mm 3,6 km/h (1 Bft) W-SW 253 5 min 0 min 1,8 UV-I 548 W/m 10,5 C 19,0 C 6,4 km/h (2 Bft)
30.09.2023 14:30 18,7 C 59 % 1025,3 hPa 0,0 mm 5,0 km/h (1 Bft) W 260 5 min 0 min 1,9 UV-I 555 W/m 10,5 C 18,7 C 8,0 km/h (2 Bft)
30.09.2023 14:25 18,6 C 57 % 1025,3 hPa 0,0 mm 4,7 km/h (1 Bft) W 262 5 min 0 min 1,9 UV-I 559 W/m 9,9 C 18,6 C 8,0 km/h (2 Bft)
30.09.2023 14:20 18,3 C 57 % 1025,3 hPa 0,0 mm 7,2 km/h (2 Bft) W-SW 253 5 min 0 min 2,0 UV-I 566 W/m 9,6 C 17,9 C 12,9 km/h (3 Bft)
30.09.2023 14:15 18,6 C 56 % 1025,4 hPa 0,0 mm 5,8 km/h (2 Bft) W 263 5 min 0 min 2,0 UV-I 570 W/m 9,6 C 18,6 C 11,3 km/h (2 Bft)
30.09.2023 14:10 18,6 C 59 % 1025,2 hPa 0,0 mm 7,4 km/h (2 Bft) SW 221 5 min 0 min 2,0 UV-I 578 W/m 10,4 C 18,1 C 11,3 km/h (2 Bft)
30.09.2023 14:05 18,7 C 57 % 1025,6 hPa 0,0 mm 3,4 km/h (1 Bft) N 355 5 min 0 min 2,1 UV-I 580 W/m 10,0 C 18,7 C 8,0 km/h (2 Bft)
30.09.2023 14:00 18,2 C 53 % 1025,5 hPa 0,0 mm 2,8 km/h (1 Bft) SO 140 5 min 0 min 2,1 UV-I 578 W/m 8,5 C 18,2 C 6,4 km/h (2 Bft)
30.09.2023 13:55 18,1 C 56 % 1025,5 hPa 0,0 mm 4,7 km/h (1 Bft) SW 223 5 min 0 min 2,1 UV-I 580 W/m 9,2 C 18,1 C 11,3 km/h (2 Bft)
30.09.2023 13:50 18,1 C 58 % 1025,5 hPa 0,0 mm 4,5 km/h (1 Bft) SW 223 5 min 0 min 2,1 UV-I 578 W/m 9,7 C 18,1 C 9,7 km/h (2 Bft)
30.09.2023 13:45 18,3 C 54 % 1025,5 hPa 0,0 mm 3,2 km/h (1 Bft) S 181 5 min 0 min 2,2 UV-I 580 W/m 8,8 C 18,3 C 9,7 km/h (2 Bft)
30.09.2023 13:40 17,9 C 60 % 1025,6 hPa 0,0 mm 1,2 km/h (1 Bft) O 101 5 min 0 min 2,2 UV-I 580 W/m 10,0 C 17,9 C 4,8 km/h (1 Bft)
30.09.2023 13:35 17,8 C 59 % 1025,7 hPa 0,0 mm 4,0 km/h (1 Bft) W-NW 290 5 min 0 min 2,2 UV-I 575 W/m 9,7 C 17,8 C 11,3 km/h (2 Bft)
30.09.2023 13:30 17,8 C 61 % 1025,7 hPa 0,0 mm 4,9 km/h (1 Bft) W 273 5 min 0 min 2,2 UV-I 580 W/m 10,2 C 17,8 C 9,7 km/h (2 Bft)
30.09.2023 13:25 17,8 C 62 % 1025,7 hPa 0,0 mm 3,8 km/h (1 Bft) NW 317 5 min 0 min 2,2 UV-I 582 W/m 10,4 C 17,8 C 8,0 km/h (2 Bft)
30.09.2023 13:20 17,7 C 62 % 1025,7 hPa 0,0 mm 5,5 km/h (1 Bft) N-NW 327 5 min 0 min 2,2 UV-I 584 W/m 10,3 C 17,7 C 11,3 km/h (2 Bft)
30.09.2023 13:15 17,9 C 63 % 1025,8 hPa 0,0 mm 3,6 km/h (1 Bft) N-NW 333 5 min 0 min 2,2 UV-I 584 W/m 10,8 C 17,9 C 8,0 km/h (2 Bft)
30.09.2023 13:10 18,2 C 64 % 1025,9 hPa 0,0 mm 3,3 km/h (1 Bft) NW 307 5 min 0 min 2,2 UV-I 587 W/m 11,3 C 18,2 C 6,4 km/h (2 Bft)
30.09.2023 13:05 18,0 C 62 % 1025,9 hPa 0,0 mm 2,0 km/h (1 Bft) N-NW 341 5 min 0 min 2,2 UV-I 589 W/m 10,6 C 18,0 C 4,8 km/h (1 Bft)
30.09.2023 13:00 17,5 C 66 % 1025,8 hPa 0,0 mm 2,4 km/h (1 Bft) O 99 5 min 0 min 2,2 UV-I 587 W/m 11,1 C 17,5 C 6,4 km/h (2 Bft)
30.09.2023 12:55 17,2 C 67 % 1025,8 hPa 0,0 mm 2,6 km/h (1 Bft) O-NO 68 5 min 0 min 2,2 UV-I 591 W/m 11,0 C 17,2 C 6,4 km/h (2 Bft)
30.09.2023 12:50 17,0 C 66 % 1025,9 hPa 0,0 mm 2,3 km/h (1 Bft) SO 135 5 min 0 min 2,2 UV-I 598 W/m 10,6 C 17,0 C 6,4 km/h (2 Bft)
30.09.2023 12:45 17,2 C 65 % 1026,0 hPa 0,0 mm 2,7 km/h (1 Bft) O-SO 118 5 min 0 min 2,2 UV-I 580 W/m 10,6 C 17,2 C 6,4 km/h (2 Bft)
30.09.2023 12:40 17,1 C 67 % 1026,0 hPa 0,0 mm 4,0 km/h (1 Bft) S 189 5 min 0 min 2,2 UV-I 578 W/m 10,9 C 17,1 C 8,0 km/h (2 Bft)
30.09.2023 12:35 17,1 C 66 % 1026,1 hPa 0,0 mm 4,7 km/h (1 Bft) S 182 5 min 0 min 2,2 UV-I 582 W/m 10,7 C 17,1 C 8,0 km/h (2 Bft)
30.09.2023 12:30 16,8 C 68 % 1026,0 hPa 0,0 mm 3,4 km/h (1 Bft) S 170 5 min 0 min 2,1 UV-I 568 W/m 10,9 C 16,8 C 8,0 km/h (2 Bft)
30.09.2023 12:25 16,8 C 66 % 1026,1 hPa 0,0 mm 2,7 km/h (1 Bft) S-SO 167 5 min 0 min 2,1 UV-I 578 W/m 10,4 C 16,8 C 8,0 km/h (2 Bft)
30.09.2023 12:20 16,7 C 67 % 1026,0 hPa 0,0 mm 3,0 km/h (1 Bft) S-SW 198 5 min 0 min 1,9 UV-I 568 W/m 10,5 C 16,7 C 9,7 km/h (2 Bft)
30.09.2023 12:15 16,6 C 68 % 1026,1 hPa 0,0 mm 4,0 km/h (1 Bft) S-SW 195 5 min 0 min 2,1 UV-I 573 W/m 10,7 C 16,6 C 6,4 km/h (2 Bft)
30.09.2023 12:10 16,7 C 71 % 1026,1 hPa 0,0 mm 4,0 km/h (1 Bft) S-SO 161 5 min 0 min 2,1 UV-I 584 W/m 11,4 C 16,7 C 8,0 km/h (2 Bft)
30.09.2023 12:05 16,3 C 69 % 1026,1 hPa 0,0 mm 3,9 km/h (1 Bft) S 184 5 min 0 min 2,0 UV-I 564 W/m 10,6 C 16,3 C 9,7 km/h (2 Bft)
30.09.2023 12:00 16,2 C 70 % 1026,2 hPa 0,0 mm 5,9 km/h (2 Bft) S 191 5 min 0 min 2,0 UV-I 564 W/m 10,7 C 16,2 C 9,7 km/h (2 Bft)
30.09.2023 11:55 16,4 C 71 % 1026,2 hPa 0,0 mm 4,3 km/h (1 Bft) SW 229 5 min 0 min 2,0 UV-I 561 W/m 11,1 C 16,4 C 8,0 km/h (2 Bft)
30.09.2023 11:50 16,6 C 71 % 1026,3 hPa 0,0 mm 1,8 km/h (1 Bft) S-SW 198 5 min 0 min 1,9 UV-I 557 W/m 11,3 C 16,6 C 6,4 km/h (2 Bft)
30.09.2023 11:45 16,2 C 70 % 1026,3 hPa 0,0 mm 1,8 km/h (1 Bft) S 178 5 min 0 min 1,9 UV-I 541 W/m 10,7 C 16,2 C 8,0 km/h (2 Bft)
30.09.2023 11:40 15,8 C 71 % 1026,3 hPa 0,0 mm 4,5 km/h (1 Bft) S-SO 159 5 min 0 min 1,8 UV-I 548 W/m 10,6 C 15,8 C 9,7 km/h (2 Bft)
30.09.2023 11:35 16,0 C 71 % 1026,2 hPa 0,0 mm 4,0 km/h (1 Bft) S-SW 192 5 min 0 min 1,8 UV-I 515 W/m 10,7 C 16,0 C 8,0 km/h (2 Bft)
30.09.2023 11:30 16,2 C 72 % 1026,3 hPa 0,0 mm 1,8 km/h (1 Bft) SW 236 5 min 0 min 1,8 UV-I 538 W/m 11,1 C 16,2 C 6,4 km/h (2 Bft)
30.09.2023 11:25 15,7 C 72 % 1026,2 hPa 0,0 mm 1,9 km/h (1 Bft) S-SO 158 5 min 0 min 1,7 UV-I 492 W/m 10,7 C 15,7 C 4,8 km/h (1 Bft)
30.09.2023 11:20 15,6 C 72 % 1026,1 hPa 0,0 mm 3,9 km/h (1 Bft) SO 134 5 min 0 min 1,6 UV-I 506 W/m 10,6 C 15,6 C 8,0 km/h (2 Bft)
30.09.2023 11:15 15,4 C 72 % 1026,1 hPa 0,0 mm 4,2 km/h (1 Bft) S 173 5 min 0 min 1,6 UV-I 485 W/m 10,4 C 15,4 C 12,9 km/h (3 Bft)
30.09.2023 11:10 15,2 C 72 % 1026,0 hPa 0,0 mm 6,2 km/h (2 Bft) S-SO 147 5 min 0 min 1,5 UV-I 475 W/m 10,2 C 15,2 C 11,3 km/h (2 Bft)
30.09.2023 11:05 15,2 C 73 % 1026,0 hPa 0,0 mm 7,0 km/h (2 Bft) S-SO 160 5 min 0 min 1,5 UV-I 461 W/m 10,4 C 14,9 C 11,3 km/h (2 Bft)
30.09.2023 11:00 15,3 C 73 % 1026,0 hPa 0,0 mm 5,7 km/h (1 Bft) S-SO 148 5 min 0 min 1,4 UV-I 454 W/m 10,5 C 15,3 C 12,9 km/h (3 Bft)
30.09.2023 10:55 15,6 C 72 % 1026,1 hPa 0,0 mm 1,7 km/h (1 Bft) N 360 5 min 0 min 1,4 UV-I 443 W/m 10,6 C 15,6 C 4,8 km/h (1 Bft)
30.09.2023 10:50 15,2 C 73 % 1026,1 hPa 0,0 mm 4,2 km/h (1 Bft) N-NO 20 5 min 0 min 1,3 UV-I 434 W/m 10,4 C 15,2 C 11,3 km/h (2 Bft)
30.09.2023 10:45 15,0 C 74 % 1026,1 hPa 0,0 mm 3,1 km/h (1 Bft) NO 46 5 min 0 min 1,2 UV-I 422 W/m 10,4 C 15,0 C 9,7 km/h (2 Bft)
30.09.2023 10:40 15,1 C 76 % 1026,0 hPa 0,0 mm 2,2 km/h (1 Bft) O-NO 75 5 min 0 min 1,2 UV-I 415 W/m 10,9 C 15,1 C 9,7 km/h (2 Bft)
30.09.2023 10:35 14,7 C 77 % 1026,1 hPa 0,0 mm 4,2 km/h (1 Bft) SO 136 5 min 0 min 1,1 UV-I 403 W/m 10,7 C 14,7 C 9,7 km/h (2 Bft)
30.09.2023 10:30 14,4 C 76 % 1026,0 hPa 0,0 mm 5,6 km/h (1 Bft) O 100 5 min 0 min 1,1 UV-I 394 W/m 10,2 C 14,4 C 11,3 km/h (2 Bft)
30.09.2023 10:25 14,6 C 77 % 1026,0 hPa 0,0 mm 3,4 km/h (1 Bft) S-SO 160 5 min 0 min 1,0 UV-I 383 W/m 10,6 C 14,6 C 9,7 km/h (2 Bft)
30.09.2023 10:20 14,2 C 79 % 1026,0 hPa 0,0 mm 4,6 km/h (1 Bft) NO 51 5 min 0 min 0,9 UV-I 371 W/m 10,6 C 14,2 C 11,3 km/h (2 Bft)
30.09.2023 10:15 14,2 C 77 % 1025,9 hPa 0,0 mm 3,9 km/h (1 Bft) O-SO 113 5 min 0 min 0,9 UV-I 355 W/m 10,2 C 14,2 C 9,7 km/h (2 Bft)
30.09.2023 10:10 14,1 C 78 % 1025,9 hPa 0,0 mm 5,2 km/h (1 Bft) O-SO 111 5 min 0 min 0,8 UV-I 343 W/m 10,3 C 14,1 C 11,3 km/h (2 Bft)
30.09.2023 10:05 13,9 C 81 % 1025,9 hPa 0,0 mm 4,5 km/h (1 Bft) O-NO 65 5 min 0 min 0,8 UV-I 336 W/m 10,7 C 13,9 C 8,0 km/h (2 Bft)
30.09.2023 10:00 13,7 C 80 % 1025,9 hPa 0,0 mm 6,3 km/h (2 Bft) SO 136 5 min 0 min 0,7 UV-I 329 W/m 10,3 C 13,7 C 14,5 km/h (3 Bft)
30.09.2023 09:55 13,7 C 81 % 1025,8 hPa 0,0 mm 6,1 km/h (2 Bft) SO 135 5 min 0 min 0,7 UV-I 276 W/m 10,5 C 13,7 C 12,9 km/h (3 Bft)
30.09.2023 09:50 13,5 C 80 % 1025,8 hPa 0,0 mm 7,3 km/h (2 Bft) SO 142 5 min 0 min 0,6 UV-I 302 W/m 10,1 C 12,9 C 12,9 km/h (3 Bft)
30.09.2023 09:45 13,6 C 80 % 1025,9 hPa 0,0 mm 7,7 km/h (2 Bft) O-SO 118 5 min 0 min 0,6 UV-I 290 W/m 10,2 C 12,8 C 12,9 km/h (3 Bft)
30.09.2023 09:40 14,2 C 81 % 1025,9 hPa 0,0 mm 2,5 km/h (1 Bft) O-SO 115 5 min 0 min 0,6 UV-I 285 W/m 11,0 C 14,2 C 4,8 km/h (1 Bft)
30.09.2023 09:35 13,8 C 81 % 1026,0 hPa 0,0 mm 3,3 km/h (1 Bft) O-SO 105 5 min 0 min 0,5 UV-I 262 W/m 10,6 C 13,8 C 11,3 km/h (2 Bft)
30.09.2023 09:30 13,8 C 82 % 1025,9 hPa 0,0 mm 3,5 km/h (1 Bft) SO 126 5 min 0 min 0,5 UV-I 262 W/m 10,8 C 13,8 C 8,0 km/h (2 Bft)
30.09.2023 09:25 13,9 C 82 % 1025,9 hPa 0,0 mm 1,6 km/h (1 Bft) SO 131 5 min 0 min 0,0 UV-I 244 W/m 10,9 C 13,9 C 8,0 km/h (2 Bft)
30.09.2023 09:20 13,3 C 83 % 1025,8 hPa 0,0 mm 3,5 km/h (1 Bft) O 98 5 min 0 min 0,0 UV-I 221 W/m 10,5 C 13,3 C 8,0 km/h (2 Bft)
30.09.2023 09:15 13,2 C 83 % 1025,7 hPa 0,0 mm 4,1 km/h (1 Bft) S-SO 159 5 min 0 min 0,0 UV-I 188 W/m 10,4 C 13,2 C 8,0 km/h (2 Bft)
30.09.2023 09:10 12,9 C 84 % 1025,6 hPa 0,0 mm 3,8 km/h (1 Bft) O-SO 123 5 min 0 min 0,0 UV-I 190 W/m 10,3 C 12,9 C 6,4 km/h (2 Bft)
30.09.2023 09:05 12,7 C 86 % 1025,5 hPa 0,0 mm 3,5 km/h (1 Bft) O-SO 115 5 min 0 min 0,0 UV-I 167 W/m 10,4 C 12,7 C 6,4 km/h (2 Bft)
30.09.2023 09:00 12,1 C 91 % 1025,5 hPa 0,0 mm 1,6 km/h (1 Bft) O-NO 67 5 min 0 min 0,0 UV-I 185 W/m 10,7 C 12,1 C 3,2 km/h (1 Bft)
30.09.2023 08:55 11,3 C 92 % 1025,5 hPa 0,0 mm 0,1 km/h (0 Bft) NO 46 5 min 0 min 0,0 UV-I 174 W/m 10,0 C 11,3 C 3,2 km/h (1 Bft)
30.09.2023 08:50 11,1 C 91 % 1025,5 hPa 0,0 mm 0,0 km/h (0 Bft) NO 46 0 min 0 min 0,0 UV-I 77 W/m 9,7 C 11,1 C 0,0 km/h (0 Bft)
30.09.2023 08:45 11,1 C 91 % 1025,4 hPa 0,0 mm 0,3 km/h (0 Bft) NO 46 0 min 0 min 0,0 UV-I 65 W/m 9,7 C 11,1 C 1,6 km/h (1 Bft)
30.09.2023 08:40 11,1 C 91 % 1025,4 hPa 0,0 mm 1,1 km/h (1 Bft) NO 46 0 min 0 min 0,0 UV-I 53 W/m 9,7 C 11,1 C 3,2 km/h (1 Bft)
30.09.2023 08:35 11,1 C 91 % 1025,4 hPa 0,0 mm 0,0 km/h (0 Bft) N-NW 338 0 min 0 min 0,0 UV-I 49 W/m 9,7 C 11,1 C 0,0 km/h (0 Bft)
30.09.2023 08:30 11,2 C 90 % 1025,2 hPa 0,0 mm 0,0 km/h (0 Bft) N-NW 338 0 min 0 min 0,0 UV-I 53 W/m 9,6 C 11,2 C 0,0 km/h (0 Bft)
30.09.2023 08:25 11,4 C 88 % 1025,2 hPa 0,0 mm 0,0 km/h (0 Bft) N-NW 338 0 min 0 min 0,0 UV-I 46 W/m 9,5 C 11,4 C 0,0 km/h (0 Bft)
30.09.2023 08:20 11,8 C 86 % 1025,3 hPa 0,0 mm 0,0 km/h (0 Bft) N-NW 338 0 min 0 min 0,0 UV-I 47 W/m 9,5 C 11,8 C 0,0 km/h (0 Bft)
30.09.2023 08:15 11,9 C 86 % 1025,2 hPa 0,0 mm 0,0 km/h (0 Bft) N-NW 338 0 min 0 min 0,0 UV-I 40 W/m 9,6 C 11,9 C 0,0 km/h (0 Bft)
30.09.2023 08:10 12,2 C 86 % 1025,2 hPa 0,0 mm 0,0 km/h (0 Bft) N-NW 338 0 min 0 min 0,0 UV-I 30 W/m 9,9 C 12,2 C 0,0 km/h (0 Bft)
30.09.2023 08:05 12,3 C 85 % 1025,0 hPa 0,0 mm 0,0 km/h (0 Bft) N-NW 338 0 min 0 min 0,0 UV-I 26 W/m 9,9 C 12,3 C 0,0 km/h (0 Bft)
30.09.2023 08:00 12,4 C 84 % 1025,0 hPa 0,0 mm 2,1 km/h (1 Bft) N-NW 338 0 min 0 min 0,0 UV-I 26 W/m 9,8 C 12,4 C 4,8 km/h (1 Bft)
30.09.2023 07:55 12,6 C 83 % 1024,9 hPa 0,0 mm 0,1 km/h (0 Bft) N 355 0 min 0 min 0,0 UV-I 26 W/m 9,8 C 12,6 C 3,2 km/h (1 Bft)
30.09.2023 07:50 12,6 C 83 % 1024,8 hPa 0,0 mm 2,4 km/h (1 Bft) N-NO 32 0 min 0 min 0,0 UV-I 26 W/m 9,8 C 12,6 C 8,0 km/h (2 Bft)
30.09.2023 07:45 12,6 C 84 % 1024,9 hPa 0,0 mm 2,5 km/h (1 Bft) N-NW 344 0 min 0 min 0,0 UV-I 23 W/m 10,0 C 12,6 C 8,0 km/h (2 Bft)
30.09.2023 07:40 12,5 C 84 % 1024,8 hPa 0,0 mm 3,3 km/h (1 Bft) N-NW 347 0 min 0 min 0,0 UV-I 21 W/m 9,9 C 12,5 C 9,7 km/h (2 Bft)
30.09.2023 07:35 12,4 C 85 % 1024,8 hPa 0,0 mm 3,6 km/h (1 Bft) NO 47 0 min 0 min 0,0 UV-I 16 W/m 9,9 C 12,4 C 9,7 km/h (2 Bft)
30.09.2023 07:30 12,2 C 86 % 1024,7 hPa 0,0 mm 3,3 km/h (1 Bft) O-NO 63 0 min 0 min 0,0 UV-I 9 W/m 9,9 C 12,2 C 9,7 km/h (2 Bft)
30.09.2023 07:25 11,8 C 87 % 1024,6 hPa 0,0 mm 3,8 km/h (1 Bft) NO 44 0 min 0 min 0,0 UV-I 5 W/m 9,7 C 11,8 C 8,0 km/h (2 Bft)
30.09.2023 07:20 11,8 C 89 % 1024,4 hPa 0,0 mm 0,9 km/h (0 Bft) O-NO 57 0 min 0 min 0,0 UV-I 0 W/m 10,0 C 11,8 C 3,2 km/h (1 Bft)
30.09.2023 07:15 12,0 C 88 % 1024,3 hPa 0,0 mm 1,9 km/h (1 Bft) O-NO 57 0 min 0 min 0,0 UV-I 0 W/m 10,1 C 12,0 C 3,2 km/h (1 Bft)
30.09.2023 07:10 12,2 C 87 % 1024,3 hPa 0,0 mm 1,9 km/h (1 Bft) N 5 0 min 0 min 0,0 UV-I 0 W/m 10,1 C 12,2 C 4,8 km/h (1 Bft)
30.09.2023 07:05 12,2 C 88 % 1024,5 hPa 0,0 mm 1,4 km/h (1 Bft) O-NO 78 0 min 0 min 0,0 UV-I 0 W/m 10,3 C 12,2 C 6,4 km/h (2 Bft)
30.09.2023 07:00 12,3 C 88 % 1024,4 hPa 0,0 mm 1,2 km/h (1 Bft) NO 48 0 min 0 min 0,0 UV-I 0 W/m 10,4 C 12,3 C 3,2 km/h (1 Bft)
30.09.2023 06:55 12,5 C 87 % 1024,2 hPa 0,0 mm 0,4 km/h (0 Bft) NO 48 0 min 0 min 0,0 UV-I 0 W/m 10,4 C 12,5 C 1,6 km/h (1 Bft)
30.09.2023 06:50 12,8 C 87 % 1024,1 hPa 0,0 mm 0,3 km/h (0 Bft) NO 48 0 min 0 min 0,0 UV-I 0 W/m 10,7 C 12,8 C 1,6 km/h (1 Bft)
30.09.2023 06:45 13,1 C 86 % 1024,0 hPa 0,0 mm 0,0 km/h (0 Bft) NO 48 0 min 0 min 0,0 UV-I 0 W/m 10,8 C 13,1 C 0,0 km/h (0 Bft)
30.09.2023 06:40 13,3 C 85 % 1024,0 hPa 0,0 mm 0,1 km/h (0 Bft) NO 48 0 min 0 min 0,0 UV-I 0 W/m 10,8 C 13,3 C 1,6 km/h (1 Bft)
30.09.2023 06:35 13,5 C 84 % 1024,0 hPa 0,0 mm 0,9 km/h (0 Bft) NO 48 0 min 0 min 0,0 UV-I 0 W/m 10,8 C 13,5 C 3,2 km/h (1 Bft)
30.09.2023 06:30 13,6 C 83 % 1024,1 hPa 0,0 mm 0,0 km/h (0 Bft) NO 47 0 min 0 min 0,0 UV-I 0 W/m 10,8 C 13,6 C 0,0 km/h (0 Bft)
30.09.2023 06:25 13,8 C 83 % 1024,0 hPa 0,0 mm 0,0 km/h (0 Bft) NO 47 0 min 0 min 0,0 UV-I 0 W/m 11,0 C 13,8 C 1,6 km/h (1 Bft)
30.09.2023 06:20 13,9 C 82 % 1024,1 hPa 0,0 mm 1,5 km/h (1 Bft) NO 47 0 min 0 min 0,0 UV-I 0 W/m 10,9 C 13,9 C 3,2 km/h (1 Bft)
30.09.2023 06:15 13,9 C 82 % 1024,2 hPa 0,0 mm 0,8 km/h (0 Bft) NO 41 0 min 0 min 0,0 UV-I 0 W/m 10,9 C 13,9 C 3,2 km/h (1 Bft)
30.09.2023 06:10 14,0 C 81 % 1024,0 hPa 0,0 mm 1,8 km/h (1 Bft) NO 41 0 min 0 min 0,0 UV-I 0 W/m 10,8 C 14,0 C 4,8 km/h (1 Bft)
30.09.2023 06:05 14,1 C 81 % 1023,8 hPa 0,0 mm 3,6 km/h (1 Bft) N-NO 13 0 min 0 min 0,0 UV-I 0 W/m 10,9 C 14,1 C 8,0 km/h (2 Bft)
30.09.2023 06:00 14,2 C 81 % 1023,8 hPa 0,0 mm 2,1 km/h (1 Bft) N-NO 22 0 min 0 min 0,0 UV-I 0 W/m 11,0 C 14,2 C 4,8 km/h (1 Bft)
30.09.2023 05:55 14,2 C 81 % 1023,7 hPa 0,0 mm 1,8 km/h (1 Bft) NO 53 0 min 0 min 0,0 UV-I 0 W/m 11,0 C 14,2 C 6,4 km/h (2 Bft)
30.09.2023 05:50 14,2 C 82 % 1023,8 hPa 0,0 mm 2,8 km/h (1 Bft) O-NO 67 0 min 0 min 0,0 UV-I 0 W/m 11,2 C 14,2 C 8,0 km/h (2 Bft)
30.09.2023 05:45 14,2 C 82 % 1024,0 hPa 0,0 mm 2,2 km/h (1 Bft) NO 55 0 min 0 min 0,0 UV-I 0 W/m 11,2 C 14,2 C 6,4 km/h (2 Bft)
30.09.2023 05:40 14,2 C 82 % 1023,7 hPa 0,0 mm 1,9 km/h (1 Bft) O-NO 75 0 min 0 min 0,0 UV-I 0 W/m 11,2 C 14,2 C 4,8 km/h (1 Bft)
30.09.2023 05:35 14,2 C 83 % 1023,8 hPa 0,0 mm 1,7 km/h (1 Bft) O-NO 71 0 min 0 min 0,0 UV-I 0 W/m 11,4 C 14,2 C 6,4 km/h (2 Bft)
30.09.2023 05:30 14,2 C 83 % 1023,8 hPa 0,0 mm 0,1 km/h (0 Bft) NO 48 0 min 0 min 0,0 UV-I 0 W/m 11,4 C 14,2 C 3,2 km/h (1 Bft)
30.09.2023 05:25 14,2 C 83 % 1023,6 hPa 0,0 mm 0,5 km/h (0 Bft) NO 48 0 min 0 min 0,0 UV-I 0 W/m 11,4 C 14,2 C 3,2 km/h (1 Bft)
30.09.2023 05:20 14,2 C 84 % 1023,5 hPa 0,0 mm 1,3 km/h (1 Bft) NO 48 0 min 0 min 0,0 UV-I 0 W/m 11,5 C 14,2 C 4,8 km/h (1 Bft)
30.09.2023 05:15 14,2 C 84 % 1023,5 hPa 0,0 mm 1,4 km/h (1 Bft) NO 49 0 min 0 min 0,0 UV-I 0 W/m 11,5 C 14,2 C 6,4 km/h (2 Bft)
30.09.2023 05:10 14,3 C 84 % 1023,4 hPa 0,0 mm 0,0 km/h (0 Bft) NO 54 0 min 0 min 0,0 UV-I 0 W/m 11,6 C 14,3 C 0,0 km/h (0 Bft)
30.09.2023 05:05 14,3 C 84 % 1023,4 hPa 0,0 mm 0,1 km/h (0 Bft) NO 54 0 min 0 min 0,0 UV-I 0 W/m 11,6 C 14,3 C 1,6 km/h (1 Bft)
30.09.2023 05:00 14,3 C 84 % 1023,4 hPa 0,0 mm 0,7 km/h (0 Bft) NO 54 0 min 0 min 0,0 UV-I 0 W/m 11,6 C 14,3 C 3,2 km/h (1 Bft)
30.09.2023 04:55 14,4 C 84 % 1023,3 hPa 0,0 mm 0,1 km/h (0 Bft) NO 49 0 min 0 min 0,0 UV-I 0 W/m 11,7 C 14,4 C 1,6 km/h (1 Bft)
30.09.2023 04:50 14,4 C 84 % 1023,4 hPa 0,0 mm 0,4 km/h (0 Bft) NO 49 0 min 0 min 0,0 UV-I 0 W/m 11,7 C 14,4 C 1,6 km/h (1 Bft)
30.09.2023 04:45 14,4 C 84 % 1023,4 hPa 0,0 mm 0,6 km/h (0 Bft) NO 49 0 min 0 min 0,0 UV-I 0 W/m 11,7 C 14,4 C 3,2 km/h (1 Bft)
30.09.2023 04:40 14,4 C 83 % 1023,5 hPa 0,0 mm 0,0 km/h (0 Bft) N-NO 22 0 min 0 min 0,0 UV-I 0 W/m 11,5 C 14,4 C 0,0 km/h (0 Bft)
30.09.2023 04:35 14,4 C 83 % 1023,4 hPa 0,0 mm 0,0 km/h (0 Bft) N-NO 22 0 min 0 min 0,0 UV-I 0 W/m 11,5 C 14,4 C 0,0 km/h (0 Bft)
30.09.2023 04:30 14,6 C 84 % 1023,3 hPa 0,0 mm 0,0 km/h (0 Bft) N-NO 22 0 min 0 min 0,0 UV-I 0 W/m 11,9 C 14,6 C 0,0 km/h (0 Bft)
30.09.2023 04:25 14,6 C 83 % 1023,2 hPa 0,0 mm 1,0 km/h (0 Bft) N-NO 22 0 min 0 min 0,0 UV-I 0 W/m 11,7 C 14,6 C 4,8 km/h (1 Bft)
30.09.2023 04:20 14,6 C 83 % 1023,2 hPa 0,0 mm 3,2 km/h (1 Bft) O-NO 62 0 min 0 min 0,0 UV-I 0 W/m 11,7 C 14,6 C 8,0 km/h (2 Bft)
30.09.2023 04:15 14,6 C 83 % 1023,1 hPa 0,0 mm 3,1 km/h (1 Bft) N-NO 13 0 min 0 min 0,0 UV-I 0 W/m 11,7 C 14,6 C 6,4 km/h (2 Bft)
30.09.2023 04:10 14,6 C 83 % 1023,1 hPa 0,0 mm 2,0 km/h (1 Bft) N-NO 32 0 min 0 min 0,0 UV-I 0 W/m 11,7 C 14,6 C 8,0 km/h (2 Bft)
30.09.2023 04:05 14,7 C 83 % 1023,0 hPa 0,0 mm 1,9 km/h (1 Bft) NO 45 0 min 0 min 0,0 UV-I 0 W/m 11,8 C 14,7 C 4,8 km/h (1 Bft)
30.09.2023 04:00 14,7 C 83 % 1023,0 hPa 0,0 mm 3,7 km/h (1 Bft) O-NO 72 0 min 0 min 0,0 UV-I 0 W/m 11,8 C 14,7 C 8,0 km/h (2 Bft)
_ Min-Zeit 03:55 17:15 04:05 - 03:55 - - - - - - 03:55 03:55 03:55
Minimum _ 5,2 C 47 % 1023,0 hPa - 0,0 km/h (0 Bft) - - - - - - 4,6 C 5,2 C 0,0 km/h (0 Bft)
_ Max-Zeit 17:10 03:20 03:20 03:55 09:45 - - 17:20 03:55 13:45 12:50 04:30 17:10 10:00
Maximum _ 19,8 C 97 % 1026,5 hPa 0,0 mm 7,7 km/h
O-SO (2 Bft)
- - 5 min 0 min 2,2 UV-I 598 W/m 11,9 C 19,8 C 14,5 km/h
O-SO (3 Bft)
Durchschnitt _ 12,9 C 79 % 1025,2 hPa #0,0 mm 1,8 km/h (1 Bft) W - #0 min. #0 min. 0,0 UV-I 0 W/m 9,0 C 12,8 C 4,4 km/h (1 Bft)